Tracking 18793 objects as of 24-September-2017
HD Live streaming from Space Station
objects crossing your sky now

COSMOS 2356

Track COSMOS 2356 now!
10-day predictions
COSMOS 2356 is classified as:


NORAD ID: 25367
Int'l Code: 1998-036E
Perigee: 1,305.4 km
Apogee: 1,873.3 km
Inclination: 82.6 °
Period: 117.8 minutes
Semi major axis: 7960 km
RCS: 0.98 m2 (medium)
Launch date: June 15, 1998
Source: Commonwealth of Independent States (former USSR) (CIS)
Launch site: PLESETSK MISSILE AND SPACE COMPLEX (PKMTR)

Satellites have a single simultaneous earth-space and space-earth channel.
aabbcc
Your satellite tracking list
Your tracking list is empty





NASA's NSSDC Master Catalog

Two Line Element Set (TLE):
1 25367U 98036E   17266.84853395 +.00000002 +00000-0 -72384-4 0  9997
2 25367 082.5791 058.8401 0356694 051.4452 311.8015 12.22384560860104
Source of the keplerian elements: AFSPC